Regional Weather Roundup
Issued by NWS Raleigh/Durham, NC

Home | Current Version | Previous Version | Text Only | Print | Product List | Glossary On
Versions: 1 2 3 4 5 6 7 8 9 10 11 12 13 14 15 16 17 18 19 20 21 22 23 24 25 26 27 28 29 30 31 32 33 34 35 36 37 38 39 40 41 42 43 44 45 46 47 48 49 50
000
ASUS42 KRAH 302110
RWRRAH
NORTH CAROLINA WEATHER ROUNDUP
NATIONAL WEATHER SERVICE RALEIGH NC
500 PM EDT TUE SEP 30 2014

NOTE: "FAIR" INDICATES FEW OR NO CLOUDS BELOW 12,000 FEET WITH NO
SIGNIFICANT WEATHER AND/OR OBSTRUCTIONS TO VISIBILITY.

NCZ001-053-055-056-065-067-302200-
WESTERN NORTH CAROLINA

CITY           SKY/WX    TMP DP  RH WIND       PRES   REMARKS
ASHEVILLE      SUNNY     78  51  38 VRB7      29.94S
JEFFERSON      SUNNY     71  48  43 NW7       29.98S
MORGANTON      SUNNY     82  52  35 W6        29.93S
HICKORY        SUNNY     82  57  42 NE3       29.88F
RUTHERFORDTON  SUNNY     82  57  42 CALM      29.88F
MOUNT AIRY     SUNNY     80  55  42 CALM      29.90S
BOONE          SUNNY     72  44  36 W8        29.98F
$$

NCZ021-022-025-041-071-084-088-302200-
CENTRAL NORTH CAROLINA

CITY           SKY/WX    TMP DP  RH WIND       PRES   REMARKS
CHARLOTTE      MOSUNNY   81  57  43 NW5       29.88S
GREENSBORO     MOSUNNY   80  58  46 VRB3      29.87S
WINSTON-SALEM  MOSUNNY   81  58  45 VRB6      29.88F
RALEIGH-DURHAM MOSUNNY   74  62  66 NE3       29.87F
FORT BRAGG     SUNNY     78  62  59 N5        29.85F
FAYETTEVILLE   SUNNY     79  63  57 NE7       29.85S
BURLINGTON     SUNNY     80  59  48 CALM      29.86F
LAURINBURG     MOSUNNY   82  61  48 N7        29.85S
$$

NCZ011-015-027-028-043-044-047-080-103-302200-
NORTHEASTERN NORTH CAROLINA

CITY           SKY/WX    TMP DP  RH WIND       PRES   REMARKS
ROCKY MT-WILSO MOSUNNY   73  63  70 N5        29.87S
GREENVILLE     PTSUNNY   77  64  65 N8        29.87S
WASHINGTON     MOSUNNY   78  62  57 NE6       29.84S
ELIZABETH CITY SUNNY     74  63  68 NE13      29.85S
MANTEO         SUNNY     73  64  72 NE10      29.85S
CAPE HATTERAS  SUNNY     72  66  81 NE10G18   29.82F
$$

NCZ078-087-090-091-093-098-101-302200-
SOUTHEASTERN NORTH CAROLINA

CITY           SKY/WX    TMP DP  RH WIND       PRES   REMARKS
LUMBERTON      MOSUNNY   82  63  52 VRB5      29.84S
GOLDSBORO      MOSUNNY   77  67  71 CALM      29.83S
KINSTON        MOSUNNY   77  63  61 N5        29.85S
KENANSVILLE    MOSUNNY   77  61  56 NW3       29.85S
NEW BERN       MOSUNNY   81  63  54 N8        29.84S
CHERRY POINT   MOSUNNY   79  65  62 NE7       29.84R
BEAUFORT       MOSUNNY   78  64  61 NE8       29.82S
JACKSONVILLE   PTSUNNY   78  63  59 N7        29.82S
WILMINGTON     PTSUNNY   82  64  54 N10       29.82S
$$




USA.gov is the U.S. government's official web portal to all federal, state and local government web resources and services.